Weather History for KMRY - April, 2013

Change the Weather History Date:

Sunday, April 7, 2013

  Actual Average Record
Temperature  
Mean Temperature 57 °F 54 °F  
Max Temperature 63 °F 61 °F 75 °F (2014)
Min Temperature 50 °F 46 °F 37 °F (2012)
Degree Days  
Heating Degree Days 8    
Month to date heating degree days 58  
Since 1 July heating degree days 2708  
Cooling Degree Days 0    
Month to date cooling degree days 0  
Year to date cooling degree days 0  
Growing Degree Days 6 (Base 50)    
Moisture  
Dew Point 49 °F    
Average Humidity 80    
Maximum Humidity 96    
Minimum Humidity 64    
Precipitation  
Precipitation 0.08 in - 0.31 in (2015)
Month to date precipitation 0.24  
Year to date precipitation 3.03  
Since 1 July precipitation 11.27  
Sea Level Pressure  
Sea Level Pressure 30.10 in    
Wind  
Wind Speed 8 mph (SW)    
Max Wind Speed 28 mph    
Max Gust Speed 33 mph    
Visibility 9 miles    
Events      
T = Trace of Precipitation, MM = Missing Value Source: NWS Daily Summary

Daily Weather History Graph

Daily Weather History Graph

Search for Another Location

Airport or City:

Trip Planner

Search our weather history database for the weather conditions in past years. The results will help you decide how hot, cold, wet, or windy it might be!

Date:

Astronomy

Apr. 07, 2013 Rise Set
Actual Time 6:44 AM PDT 7:35 PM PDT
Civil Twilight 6:17 AM PDT 8:01 PM PDT
Nautical Twilight 5:46 AM PDT 8:32 PM PDT
Astronomical Twilight 5:14 AM PDT 9:04 PM PDT
Moon 5:00 AM PDT (4/7) 5:15 PM PDT (4/7)
Length of Visible Light 13h 43m
Length of Day
12h 50m
Waning Crescent, 7% of the Moon is Illuminated
Apr 7
Waning Crescent
Apr 10
New
Apr 18
First Quarter
Apr 25
Full
May 2
Last Quarter

Hourly Weather History & Observations

Time (PDT) Temp. Dew Point Humidity Pressure Visibility Wind Dir Wind Speed Gust Speed Precip Events Conditions
12:07 AM 53.6 °F 48.2 °F 82% 30.20 in 10.0 mi SW 5.8 mph - N/A   Overcast
12:54 AM 53.1 °F 50.0 °F 89% 30.23 in 10.0 mi SSE 3.5 mph - N/A   Overcast
1:54 AM 53.1 °F 50.0 °F 89% 30.23 in 10.0 mi SSW 4.6 mph - N/A   Overcast
2:11 AM 53.6 °F 50.0 °F 88% 30.19 in 10.0 mi WSW 5.8 mph - N/A   Overcast
2:54 AM 53.1 °F 48.9 °F 86% 30.22 in 10.0 mi SW 6.9 mph - N/A   Overcast
3:51 AM 53.6 °F 50.0 °F 88% 30.17 in 10.0 mi West 3.5 mph - N/A   Overcast
3:54 AM 54.0 °F 50.0 °F 86% 30.20 in 10.0 mi Calm Calm - N/A   Overcast
4:02 AM 53.6 °F 50.0 °F 88% 30.16 in 10.0 mi Calm Calm - N/A   Overcast
4:54 AM 53.1 °F 48.0 °F 83% 30.17 in 10.0 mi ESE 5.8 mph - N/A   Mostly Cloudy
5:01 AM 53.6 °F 48.2 °F 82% 30.13 in 10.0 mi ESE 4.6 mph - N/A   Scattered Clouds
5:54 AM 51.1 °F 48.0 °F 89% 30.18 in 10.0 mi SSW 4.6 mph - N/A   Clear
6:54 AM 50.0 °F 46.9 °F 89% 30.18 in 10.0 mi ENE 3.5 mph - N/A   Clear
7:54 AM 52.0 °F 46.9 °F 83% 30.19 in 10.0 mi SE 4.6 mph - N/A   Clear
8:54 AM 55.9 °F 48.0 °F 75% 30.19 in 10.0 mi Calm Calm - N/A   Partly Cloudy
9:54 AM 60.1 °F 48.0 °F 64% 30.18 in 10.0 mi WSW 8.1 mph - N/A   Clear
10:54 AM 61.0 °F 50.0 °F 67% 30.19 in 10.0 mi Variable 6.9 mph - N/A   Clear
11:54 AM 61.0 °F 50.0 °F 67% 30.19 in 10.0 mi Variable 6.9 mph - N/A   Partly Cloudy
12:54 PM 60.1 °F 51.1 °F 72% 30.16 in 10.0 mi West 9.2 mph - N/A   Clear
1:54 PM 62.1 °F 52.0 °F 70% 30.13 in 10.0 mi WNW 12.7 mph 16.1 mph N/A   Clear
2:30 PM 60.8 °F 51.8 °F 72% 30.08 in 10.0 mi West 9.2 mph - N/A   Mostly Cloudy
2:54 PM 61.0 °F 52.0 °F 72% 30.11 in 10.0 mi West 8.1 mph - N/A   Overcast
3:01 PM 60.8 °F 51.8 °F 72% 30.07 in 10.0 mi West 8.1 mph - N/A   Overcast
3:54 PM 60.1 °F 52.0 °F 75% 30.09 in 10.0 mi West 11.5 mph - N/A   Overcast
4:54 PM 59.0 °F 51.1 °F 75% 30.09 in 9.0 mi West 10.4 mph - N/A   Mostly Cloudy
5:14 PM 57.2 °F 51.8 °F 82% 30.04 in 10.0 mi SW 6.9 mph - N/A   Partly Cloudy
5:49 PM 57.2 °F 50.0 °F 77% 30.04 in 10.0 mi WSW 10.4 mph - N/A   Mostly Cloudy
5:54 PM 57.0 °F 50.0 °F 77% 30.08 in 9.0 mi WSW 9.2 mph - N/A   Mostly Cloudy
6:32 PM 55.4 °F 48.2 °F 77% 30.03 in 9.0 mi WSW 8.1 mph - N/A   Scattered Clouds
6:42 PM 55.4 °F 48.2 °F 77% 30.04 in 9.0 mi WSW 11.5 mph - N/A   Mostly Cloudy
6:51 PM 55.4 °F 48.2 °F 77% 30.03 in 9.0 mi WSW 12.7 mph - N/A   Scattered Clouds
6:54 PM 55.0 °F 48.9 °F 80% 30.07 in 9.0 mi SW 12.7 mph - N/A   Scattered Clouds
7:02 PM 55.4 °F 48.2 °F 77% 30.03 in 9.0 mi West 12.7 mph - N/A   Mostly Cloudy
7:36 PM 55.4 °F 48.2 °F 77% 30.04 in 9.0 mi WSW 9.2 mph - N/A   Overcast
7:54 PM 55.0 °F 48.0 °F 77% 30.07 in 10.0 mi WSW 10.4 mph - N/A   Overcast
8:54 PM 54.0 °F 46.9 °F 77% 30.06 in 10.0 mi SW 9.2 mph - N/A   Overcast
9:29 PM 53.6 °F 46.4 °F 77% 30.00 in 10.0 mi Calm Calm - N/A   Overcast
9:54 PM 54.0 °F 46.9 °F 77% 30.03 in 10.0 mi SW 8.1 mph - N/A   Overcast
10:18 PM 53.6 °F 46.4 °F 77% 29.99 in 10.0 mi SSW 5.8 mph - N/A   Overcast
10:54 PM 52.0 °F 48.9 °F 89% 30.02 in 2.5 mi SW 6.9 mph - 0.02 in   Overcast
10:57 PM 51.8 °F 48.2 °F 88% 29.98 in 3.0 mi SW 6.9 mph - N/A   Overcast
11:12 PM 51.8 °F 50.0 °F 94% 29.97 in 5.0 mi Variable 3.5 mph - N/A   Overcast
11:38 PM 51.8 °F 50.0 °F 94% 29.95 in 4.0 mi SSW 8.1 mph - 0.01 in   Overcast
11:54 PM 52.0 °F 50.0 °F 93% 29.98 in 5.0 mi SSW 8.1 mph - 0.01 in   Overcast